San Juan, PR

4:52 PM AST on August 21, 2017 (GMT -0400)
Luis Munoz Marin International

Weather History for TJSJ - February, 2012

Change the Weather History Date:

Monday, February 6, 2012

  Actual Average Record
Temperature  
Mean Temperature 76 °F 78 °F  
Max Temperature 82 °F 83 °F 90 °F (1998)
Min Temperature 70 °F 72 °F 62 °F (1968)
Degree Days  
Heating Degree Days 0 0  
Month to date heating degree days 0 0  
Since 1 July heating degree days 0 0  
Cooling Degree Days 11 13  
Month to date cooling degree days 71 78  
Year to date cooling degree days 459 469  
Growing Degree Days 26 (Base 50)    
Moisture  
Dew Point 69 °F    
Average Humidity 77    
Maximum Humidity 90    
Minimum Humidity 63    
Precipitation  
Precipitation 0.21 in 0.09 in 2.25 in (1931)
Month to date precipitation 0.89 0.55  
Year to date precipitation 4.62 4.31  
Snow  
Snow 0.00 in 0.00 in - ()
Month to date snowfall 0.0 0.0  
Since 1 July snowfall 0.0 0.0  
Snow Depth 0.00 in    
Sea Level Pressure  
Sea Level Pressure 30.04 in    
Wind  
Wind Speed 7 mph (East)    
Max Wind Speed 22 mph    
Max Gust Speed 30 mph    
Visibility 10 miles    
Events Rain    
T = Trace of Precipitation, MM = Missing Value Source: NWS Daily Summary

Daily Weather History Graph

Daily Weather History Graph

Search for Another Location

Airport or City:

Trip Planner

Search our weather history database for the weather conditions in past years. The results will help you decide how hot, cold, wet, or windy it might be!

Date:

Astronomy

Feb. 06, 2012 Rise Set
Actual Time 6:55 AM AST 6:20 PM AST
Civil Twilight 6:33 AM AST 6:43 PM AST
Nautical Twilight 6:07 AM AST 7:09 PM AST
Astronomical Twilight 5:41 AM AST 7:34 PM AST
Moon 5:21 PM AST (2/6) 5:40 AM AST (2/6)
Length of Visible Light 12h 09m
Length of Day
11h 24m
Waxing Gibbous, 98% of the Moon is Illuminated
Feb 6
Waxing Gibbous
Feb 7
Full
Feb 14
Last Quarter
Feb 21
New
Feb 29
First Quarter

Hourly Weather History & Observations

Time (AST) Temp. Heat Index Dew Point Humidity Pressure Visibility Wind Dir Wind Speed Gust Speed Precip Events Conditions
12:56 AM 73.0 °F - 66.0 °F 79% 30.03 in 10.0 mi Calm Calm - N/A   Scattered Clouds
1:56 AM 72.0 °F - 66.0 °F 81% 30.02 in 10.0 mi Calm Calm - N/A   Partly Cloudy
2:56 AM 72.0 °F - 66.9 °F 84% 30.00 in 10.0 mi Calm Calm - N/A   Scattered Clouds
3:56 AM 72.0 °F - 66.9 °F 84% 30.00 in 10.0 mi Calm Calm - N/A   Scattered Clouds
4:56 AM 70.0 °F - 66.0 °F 87% 30.00 in 10.0 mi Calm Calm - N/A   Scattered Clouds
5:56 AM 72.0 °F - 66.9 °F 84% 30.02 in 10.0 mi Calm Calm - N/A   Scattered Clouds
6:56 AM 72.0 °F - 68.0 °F 87% 30.04 in 10.0 mi Calm Calm - N/A   Scattered Clouds
7:56 AM 75.0 °F - 68.0 °F 79% 30.06 in 10.0 mi Calm Calm - N/A   Partly Cloudy
8:56 AM 78.1 °F - 69.1 °F 74% 30.08 in 10.0 mi SE 4.6 mph - N/A   Partly Cloudy
9:56 AM 77.0 °F - 69.1 °F 76% 30.09 in 10.0 mi ESE 9.2 mph - 0.00 in Rain Light Rain
10:56 AM 75.0 °F - 71.1 °F 87% 30.10 in 10.0 mi East 9.2 mph - 0.03 in Rain Light Rain
11:56 AM 81.0 °F 84.4 °F 70.0 °F 69% 30.07 in 10.0 mi East 11.5 mph - 0.00 in   Mostly Cloudy
12:56 PM 79.0 °F - 70.0 °F 74% 30.05 in 10.0 mi ENE 10.4 mph - N/A   Mostly Cloudy
1:56 PM 81.0 °F 84.4 °F 70.0 °F 69% 30.02 in 10.0 mi ENE 17.3 mph - N/A   Scattered Clouds
2:56 PM 82.0 °F 84.9 °F 68.0 °F 62% 30.00 in 10.0 mi ENE 18.4 mph 24.2 mph N/A   Scattered Clouds
3:56 PM 79.0 °F - 69.1 °F 72% 29.99 in 10.0 mi ENE 18.4 mph - N/A   Scattered Clouds
4:56 PM 80.1 °F 82.9 °F 69.1 °F 69% 29.99 in 10.0 mi East 17.3 mph - N/A   Scattered Clouds
5:56 PM 78.1 °F - 69.1 °F 74% 30.00 in 10.0 mi East 15.0 mph - N/A   Scattered Clouds
6:56 PM 75.0 °F - 71.1 °F 87% 30.02 in 10.0 mi East 6.9 mph - 0.18 in   Scattered Clouds
7:56 PM 75.0 °F - 70.0 °F 84% 30.04 in 10.0 mi East 5.8 mph - N/A   Scattered Clouds
8:56 PM 75.0 °F - 70.0 °F 84% 30.05 in 10.0 mi ESE 3.5 mph - N/A   Scattered Clouds
9:56 PM 75.0 °F - 70.0 °F 84% 30.06 in 10.0 mi East 4.6 mph - N/A   Scattered Clouds
10:56 PM 73.9 °F - 68.0 °F 82% 30.06 in 10.0 mi SE 3.5 mph - N/A   Scattered Clouds
11:56 PM 73.9 °F - 68.0 °F 82% 30.05 in 10.0 mi Calm Calm - N/A   Scattered Clouds